Terug naar catalogus

FREGAT DEB

LostUNKNOWN
NORAD 46003·DEBRIS·🇷🇺 Russia

Gelanceerd Jul 18, 2011 vanaf Baikonur Cosmodrome

Loading…

Volgende Passages (komende 24 uur)

TLE

VerouderdSource: Space-Track

Epoch: Mar 31, 2022, 07:31 UTC

1 46003U 11037HE  22090.31319888  .00874678  00000-0  52057+0 0  9997
2 46003  51.0371 135.6602 1634310 312.6325  34.7528 11.49062609 69333

Volg FREGAT DEB in realtime met AllMySat

Download on the App Store